Starlink 32711

operational
NORAD ID: 62435 Int'l Des: 2024-251 Owner: SPXS Country: US Constellation: starlink
LEOCIRCULAR

About Starlink 32711

Description loading...

Live Position

Loading 3D Globe...

Upcoming Passes

Altitude History

Altitude vs Time

uPlot chart will show altitude changes over time

Two-Line Element Set

1 62435U 24251D 25354.37465514 .00018008 00000-0 61835-3 0 9991
2 62435 53.1625 343.8088 0001213 49.0358 311.0748 15.30215138 55805
Epoch: Dec 20, 2025 • Age: 12 hours

Current Status

Altitude 478.2 km
Velocity 7.63 km/s
Sub-Earth Point 38.23°N, 88.04°E
Launch Date Dec 29, 2024
Age 0.9 years
Type internet

Technical Details

Classification Payload
Mass 730.00 kg
Dry Mass 700.00 kg
Total Mass 730.00 kg
Length 0.30 m
Diameter 4.10 m
Span 29.00 m
Shape Box + pan
Manufacturer SPXS
Bus Type Starlink V2M
Phase Status In Orbit
Owner/State SPXS/US

Large Constellations

Loading constellations...